• In Hungary
  • List of Countries
  • For 7 days
  • Water Temperature
  • Satellite Maps
  • Weather Map
  • News
  • Weather Widgets
  • user-avatar
    Login

    Hourly Weather Mellya-Tamak

    Today, 26 September, Wednesday

    Time Temperature Precipitation Wind Pressure Humidity
    00:00 +14°C° 0.1 mm 6 mps 752 mmHg 73%
    01:00 +14°C° 0.1 mm 6 mps 752 mmHg 72%
    02:00 +14°C° 0 mm 6 mps 752 mmHg 71%
    03:00 +14°C° 0 mm 6 mps 752 mmHg 70%
    04:00 +14°C° 0 mm 6 mps 752 mmHg 69%
    05:00 +13°C° 0 mm 5 mps 752 mmHg 71%
    06:00 +13°C° 0 mm 5 mps 753 mmHg 73%
    07:00 +13°C° 0 mm 4 mps 753 mmHg 75%
    08:00 +13°C° 0 mm 4 mps 753 mmHg 74%
    09:00 +13°C° 0 mm 5 mps 754 mmHg 73%
    10:00 +13°C° 0 mm 5 mps 754 mmHg 73%
    11:00 +13°C° 0.3 mm 4 mps 755 mmHg 73%
    12:00 +13°C° 0.3 mm 4 mps 755 mmHg 73%
    13:00 +12°C° 0.3 mm 4 mps 755 mmHg 73%
    14:00 +12°C° 0.1 mm 4 mps 756 mmHg 72%
    15:00 +12°C° 0.1 mm 4 mps 756 mmHg 71%
    16:00 +12°C° 0.1 mm 4 mps 756 mmHg 70%
    17:00 +12°C° 0.1 mm 4 mps 756 mmHg 73%
    18:00 +11°C° 0.1 mm 3 mps 756 mmHg 76%
    19:00 +10°C° 0.1 mm 3 mps 757 mmHg 79%
    20:00 +10°C° 0 mm 3 mps 757 mmHg 79%
    21:00 +10°C° 0 mm 2 mps 757 mmHg 80%
    22:00 +9°C° 0 mm 2 mps 757 mmHg 80%
    23:00 +9°C° 0 mm 2 mps 757 mmHg 81%

    Tomorrow, 27 September, Thursday

    Time Temperature Precipitation Wind Pressure Humidity
    00:00 +9°C° 0 mm 2 mps 756 mmHg 81%
    01:00 +8°C° 0 mm 2 mps 756 mmHg 82%
    02:00 +8°C° 0 mm 2 mps 756 mmHg 82%
    03:00 +8°C° 0 mm 3 mps 756 mmHg 83%
    04:00 +7°C° 0 mm 3 mps 756 mmHg 83%
    05:00 +7°C° 0 mm 3 mps 756 mmHg 83%
    06:00 +5°C° 0 mm 3 mps 755 mmHg 83%
    07:00 +5°C° 0 mm 4 mps 755 mmHg 83%
    08:00 +6°C° 0 mm 5 mps 755 mmHg 77%
    09:00 +7°C° 0 mm 5 mps 754 mmHg 70%
    10:00 +8°C° 0 mm 6 mps 754 mmHg 63%
    11:00 +9°C° 0 mm 7 mps 753 mmHg 60%
    12:00 +9°C° 0 mm 7 mps 753 mmHg 57%
    13:00 +10°C° 0 mm 8 mps 752 mmHg 54%
    14:00 +10°C° 0 mm 8 mps 751 mmHg 53%
    15:00 +10°C° 0 mm 8 mps 751 mmHg 52%
    16:00 +10°C° 0 mm 8 mps 750 mmHg 51%
    17:00 +9°C° 0.1 mm 8 mps 749 mmHg 55%
    18:00 +9°C° 0.1 mm 7 mps 749 mmHg 58%
    19:00 +8°C° 0.1 mm 7 mps 748 mmHg 62%
    20:00 +6°C° 0.5 mm 8 mps 748 mmHg 66%
    21:00 +5°C° 0.5 mm 8 mps 747 mmHg 71%
    22:00 +5°C° 0.5 mm 8 mps 746 mmHg 76%
    23:00 +5°C° 0.5 mm 8 mps 746 mmHg 78%

    Day after tomorrow, 28 September, Friday

    Time Temperature Precipitation Wind Pressure Humidity
    00:00 +5°C° 0.5 mm 8 mps 745 mmHg 81%
    01:00 +4°C° 0.5 mm 8 mps 745 mmHg 84%
    02:00 +5°C° 0.1 mm 7 mps 745 mmHg 85%
    03:00 +5°C° 0.1 mm 7 mps 745 mmHg 86%
    04:00 +5°C° 0.1 mm 7 mps 746 mmHg 87%
    05:00 +4°C° 0 mm 7 mps 746 mmHg 87%
    06:00 +4°C° 0 mm 6 mps 747 mmHg 87%
    07:00 +3°C° 0 mm 6 mps 747 mmHg 88%
    08:00 +4°C° 0 mm 7 mps 748 mmHg 84%
    09:00 +5°C° 0 mm 7 mps 748 mmHg 79%
    10:00 +6°C° 0 mm 8 mps 748 mmHg 75%
    11:00 +7°C° 0 mm 8 mps 748 mmHg 70%
    12:00 +9°C° 0 mm 8 mps 749 mmHg 66%
    13:00 +10°C° 0 mm 8 mps 749 mmHg 61%
    14:00 +10°C° 0.2 mm 8 mps 748 mmHg 63%
    15:00 +10°C° 0.2 mm 7 mps 748 mmHg 66%
    16:00 +9°C° 0.2 mm 6 mps 748 mmHg 69%
    17:00 +9°C° 0.8 mm 6 mps 747 mmHg 73%
    18:00 +9°C° 0.8 mm 6 mps 747 mmHg 77%
    19:00 +9°C° 0.8 mm 6 mps 746 mmHg 81%
    20:00 +9°C° 0.3 mm 8 mps 745 mmHg 78%
    21:00 +10°C° 0.3 mm 9 mps 745 mmHg 76%
    22:00 +11°C° 0.3 mm 11 mps 744 mmHg 74%
    23:00 +11°C° 0.1 mm 11 mps 744 mmHg 75%

    29 September, Saturday

    Time Temperature Precipitation Wind Pressure Humidity
    00:00 +11°C° 0.1 mm 10 mps 744 mmHg 77%
    01:00 +11°C° 0.1 mm 10 mps 744 mmHg 78%
    02:00 +11°C° 0.4 mm 10 mps 745 mmHg 79%
    03:00 +10°C° 0.4 mm 9 mps 746 mmHg 81%
    04:00 +10°C° 0.4 mm 8 mps 746 mmHg 82%
    05:00 +8°C° 0.1 mm 7 mps 747 mmHg 83%
    06:00 +7°C° 0.1 mm 6 mps 748 mmHg 83%
    07:00 +5°C° 0.1 mm 5 mps 749 mmHg 84%
    08:00 +5°C° 0 mm 6 mps 750 mmHg 79%
    09:00 +5°C° 0 mm 7 mps 751 mmHg 74%
    10:00 +6°C° 0 mm 7 mps 752 mmHg 70%
    11:00 +8°C° 0 mm 7 mps 752 mmHg 65%
    12:00 +8°C° 0 mm 7 mps 753 mmHg 60%
    13:00 +9°C° 0 mm 7 mps 753 mmHg 56%
    14:00 +9°C° 0 mm 7 mps 754 mmHg 55%
    15:00 +9°C° 0 mm 7 mps 754 mmHg 53%
    16:00 +9°C° 0 mm 6 mps 755 mmHg 52%
    17:00 +7°C° 0 mm 5 mps 755 mmHg 57%
    18:00 +6°C° 0 mm 4 mps 756 mmHg 61%
    19:00 +5°C° 0 mm 3 mps 756 mmHg 66%
    20:00 +5°C° 0 mm 3 mps 757 mmHg 67%
    21:00 +4°C° 0 mm 3 mps 757 mmHg 69%
    22:00 +4°C° 0 mm 3 mps 757 mmHg 71%
    23:00 +4°C° 0 mm 3 mps 758 mmHg 72%

    30 September, Sunday

    Time Temperature Precipitation Wind Pressure Humidity
    00:00 +4°C° 0 mm 3 mps 758 mmHg 72%
    01:00 +3°C° 0 mm 3 mps 758 mmHg 73%
    02:00 +3°C° 0 mm 3 mps 758 mmHg 73%
    03:00 +4°C° 0 mm 2 mps 758 mmHg 74%
    04:00 +4°C° 0 mm 2 mps 759 mmHg 74%
    05:00 +4°C° 0 mm 2 mps 759 mmHg 74%
    06:00 +4°C° 0 mm 2 mps 759 mmHg 75%
    07:00 +4°C° 0 mm 2 mps 759 mmHg 75%
    08:00 +5°C° 0 mm 2 mps 759 mmHg 72%
    09:00 +5°C° 0 mm 3 mps 759 mmHg 68%
    10:00 +7°C° 0 mm 3 mps 760 mmHg 64%
    11:00 +8°C° 0 mm 3 mps 760 mmHg 61%
    12:00 +9°C° 0 mm 3 mps 760 mmHg 57%
    13:00 +9°C° 0 mm 3 mps 760 mmHg 53%
    14:00 +9°C° 0 mm 3 mps 759 mmHg 53%
    15:00 +8°C° 0 mm 4 mps 759 mmHg 53%
    16:00 +8°C° 0 mm 4 mps 759 mmHg 53%
    17:00 +8°C° 0 mm 3 mps 759 mmHg 56%
    18:00 +7°C° 0 mm 3 mps 760 mmHg 58%
    19:00 +7°C° 0 mm 2 mps 760 mmHg 61%
    20:00 +6°C° 0 mm 2 mps 760 mmHg 63%
    21:00 +5°C° 0 mm 2 mps 760 mmHg 65%
    22:00 +5°C° 0 mm 2 mps 760 mmHg 67%
    23:00 +4°C° 0 mm 2 mps 760 mmHg 69%

    1 October, Monday

    Time Temperature Precipitation Wind Pressure Humidity
    00:00 +4°C° 0 mm 2 mps 760 mmHg 71%
    01:00 +3°C° 0 mm 2 mps 760 mmHg 73%
    02:00 +3°C° 0 mm 2 mps 760 mmHg 74%
    03:00 +3°C° 0 mm 2 mps 760 mmHg 75%
    04:00 +2°C° 0 mm 2 mps 760 mmHg 77%
    05:00 +2°C° 0 mm 2 mps 760 mmHg 77%
    06:00 +2°C° 0 mm 2 mps 760 mmHg 78%
    07:00 +2°C° 0 mm 2 mps 760 mmHg 79%
    08:00 +3°C° 0 mm 2 mps 760 mmHg 74%
    09:00 +3°C° 0 mm 3 mps 760 mmHg 68%
    10:00 +5°C° 0 mm 3 mps 760 mmHg 63%
    11:00 +7°C° 0 mm 3 mps 760 mmHg 59%
    12:00 +7°C° 0 mm 4 mps 760 mmHg 54%
    13:00 +7°C° 0 mm 4 mps 760 mmHg 50%
    14:00 +8°C° 0 mm 4 mps 760 mmHg 50%
    15:00 +8°C° 0 mm 4 mps 759 mmHg 51%
    16:00 +8°C° 0 mm 4 mps 759 mmHg 51%
    17:00 +8°C° 0 mm 3 mps 759 mmHg 57%
    18:00 +7°C° 0 mm 3 mps 759 mmHg 62%
    19:00 +5°C° 0 mm 3 mps 759 mmHg 68%
    20:00 +5°C° 0 mm 3 mps 759 mmHg 70%
    21:00 +4°C° 0 mm 3 mps 759 mmHg 72%
    22:00 +4°C° 0 mm 3 mps 759 mmHg 73%
    23:00 +4°C° 0 mm 4 mps 759 mmHg 73%
    Show more